Location: Mascot Post Office (historical)
(40.2645°N, 99.5462°W)
Time: 17:23:42
(UTC+00:00)

SL-16 R/B - Pass Details

Date: 14 July 2020
Orbit: 985 x 1006 km, 99.5° (Epoch: 04 August)

Event Time Altitude Azimuth Distance (km) Brightness Sun altitude
Exits shadow 07:12:18 16° 109° (ESE) 2,365 4.4 -27.8°
Maximum altitude 07:16:01 28° 63° (ENE) 1,800 4.2 -27.7°
Drops below altitude 10° 07:21:10 10° 8° (N) 2,789 5.9 -27.5°
Sets 07:24:00 0° 357° (N) 3,744 6.7 -27.5°
